SCP
0 0 0 0 0 0 0 0 0 0 0 0 0 0 0 0 0 -0 -0 -0 -0 -0 -0 -0 0 0 0 0 0 0 0 0 0 -0 -0 -0 -0 -0 -0 -0 -0 -0 -0
0 0 0 0 0 0 0 0 0 0 0 0 0 0 0 0 0 -0 -0 -0 -0 -0 -0 -0 0 0 0 0 0 0 0 0 0 0 0 0 0 -0 -0 -0 -0 -0 -0
0 0 0 0 0 0 0 0 0 0 0 0 0 0 0 0 0 0 -0 -0 -0 -0 -0 -0 0 0 0 0 0 0 0 0 0 0 0 0 0 0 0 -0 -0 0 -0
0 0 0 0 0 0 0 0 0 0 0 0 0 0 0 0 0 0 0 0 -0 -0 -0 0 0 0 0 0 0 0 0 0 0 0 0 0 0 0 0 0 0 0 0
0 0 0 0 0 0 0 0 0 0 0 0 0 0 0 0 0 0 0 0 0 0 0 0 0 0 0 0 0 0 0 0 0 0 0 0 0 0 0 0 0 0 0
0 0 0 0 0 0 0 0 0 0 0 0 0 0 0 0 0 0 0 0 0 0 0 0 0 0 0 0 0 0 0 0 0 0 0 0 0 0 0 0 0 0 0
0 0 0 0 0 0 0 0 0 0 0 0 0 0 0 0 0 0 0 0 0 0 0 0 0 0 0 0 0 0 0 0 0 -0 0 0 0 0 0 0 -0 -0 0
0 0 0 0 0 0 0 0 0 0 0 0 0 0 0 0 0 0 0 0 0 0 0 0 0 0 0 0 0 0 0 0 0 0 0 0 0 0 0 -0 -0 -0 -0
0 0 0 0 0 0 0 0 0 0 0 0 0 0 0 0 0 0 0 0 0 0 0 0 0 0 0 0 0 0 0 0 0 0 0 0 0 0 0 -0 -0 -0 -0
0 0 0 0 0 0 0 0 0 0 0 0 0 0 0 0 0 0 0 0 0 0 0 0 0 0 0 0 0 0 0 0 0 0 0 0 0 0 0 0 -0 -0 -0
0 0 0 0 0 0 0 0 0 0 0 0 0 0 0 0 0 0 0 0 0 0 0 0 0 0 0 0 0 0 0 0 0 0 0 0 0 0 0 0 -0 -0 -0
0 0 0 0 0 0 0 0 0 0 0 0 0 0 0 0 0 0 0 0 0 0 0 0 0 0 0 0 0 0 0 0 0 0 0 0 0 0 0 0 0 0 0
0 0 0 0 0 0 0 0 0 0 0 0 0 0 0 0 0 0 0 0 0 0 0 0 0 0 0 0 0 0 0 0 0 0 0 0 0 0 0 0 0 0 0
0 0 0 0 0 0 0 0 0 0 0 0 0 0 0 0 0 0 0 0 0 0 0 0 0 0 0 0 0 0 0 0 0 0 0 0 0 0 0 0 0 0 0
1 0 0 0 0 0 1 1 0 0 0 0 0 0 0 0 0 0 0 0 0 0 0 0 0 0 0 0 0 0 -0 -0 0 0 0 0 1 1 0 0 0 0 0
1 1 0 0 0 0 1 1 0 0 0 0 0 1 1 1 0 0 0 0 0 0 0 0 0 0 0 0 0 0 0 -0 0 0 0 0 1 1 1 1 0 0 1
2 2 1 1 1 1 1 1 0 0 1 1 1 1 1 1 1 0 0 0 0 0 1 0 0 0 0 0 0 0 0 0 0 0 0 0 1 1 1 1 1 1 1
3 3 2 2 1 1 1 1 1 1 1 1 1 1 1 1 1 1 1 0 0 1 1 0 0 0 0 0 0 0 0 0 0 0 0 0 0 1 1 1 1 1 1
4 3 3 2 2 2 2 1 1 1 1 1 1 1 2 1 1 1 1 1 1 1 1 1 1 0 0 0 1 1 1 1 1 0 0 0 0 1 1 1 1 1 1
2 2 2 2 1 2 2 2 2 2 2 2 2 2 2 2 1 1 1 1 1 1 1 1 1 1 0 0 1 1 1 1 1 0 0 0 0 0 0 1 1 1 1
1 1 1 1 1 1 2 2 3 2 2 2 2 3 2 1 1 1 2 2 1 1 1 1 1 1 0 0 0 0 0 0 0 0 0 0 0 0 0 0 1 1 1
0 0 0 1 1 1 2 3 3 2 2 2 2 2 2 1 1 1 2 2 2 1 1 1 1 0 0 0 0 0 0 0 0 0 0 0 0 0 0 0 1 1 1
0 0 0 0 1 1 2 2 2 2 1 1 1 2 1 1 1 1 2 2 2 1 1 1 0 0 0 0 0 0 0 0 0 0 0 0 0 0 0 0 1 1 1
0 0 1 1 1 1 1 1 1 1 0 1 1 1 1 0 0 0 1 1 1 1 0 0 0 0 0 0 0 0 0 0 0 0 0 0 0 0 0 0 1 1 1
0 0 1 1 1 0 0 0 0 0 0 0 0 0 0 0 0 0 0 0 0 0 0 0 0 0 0 0 0 0 0 0 0 0 0 0 0 0 0 0 0 0 0
0 0 0 1 1 0 0 0 0 0 0 0 0 0 0 0 0 0 0 0 0 0 0 0 0 0 0 0 0 0 0 0 0 0 0 0 0 0 0 0 0 0 0
Wind_Speed
14 19 17 16 15 13 14 14 16 16 16 15 14 13 12 11 10 9 8 9 9 9 9 9 9 9 9 10 10 10 9 9 9 8 7 7 5 6 7 6 8 9 9
16 19 17 16 16 14 13 14 15 16 15 15 14 13 12 11 9 8 7 7 7 8 8 8 9 9 8 8 8 8 8 6 6 6 6 7 6 4 4 2 3 10 8
17 18 17 14 14 14 13 13 14 15 15 14 14 13 12 11 10 9 8 7 6 6 7 7 7 8 7 7 6 6 6 5 4 3 5 7 9 6 5 3 4 7 7
17 17 17 16 14 14 14 13 14 15 14 13 13 12 11 11 10 9 8 7 6 6 6 6 6 6 6 5 6 5 5 4 3 3 6 2 6 8 7 6 5 5 6
15 15 16 16 15 14 14 13 13 13 13 13 12 12 11 11 10 8 7 7 5 5 4 4 5 5 5 3 4 5 5 4 4 7 4 2 2 9 8 7 7 7 6
15 14 18 16 15 14 13 13 12 13 13 12 11 10 9 9 10 9 8 7 6 4 4 4 4 3 4 2 2 2 3 5 7 9 5 4 3 7 7 7 5 4 6
15 14 17 15 14 14 13 13 13 13 13 12 12 11 10 9 7 7 7 6 6 5 4 5 4 3 3 3 3 3 3 4 9 7 5 5 6 7 5 7 8 9 9
14 14 16 16 15 14 14 14 14 14 13 12 11 11 10 9 8 7 6 6 6 6 6 6 5 5 5 4 4 5 5 5 9 8 6 4 4 4 5 8 8 10 12
13 13 14 14 14 14 13 14 14 13 12 11 11 10 9 9 9 9 8 7 7 7 7 6 7 6 6 6 6 7 7 6 10 7 5 5 6 5 7 9 8 9 11
12 13 13 13 13 13 12 13 13 13 12 11 11 10 8 8 8 8 9 10 8 7 7 8 8 8 8 8 9 9 9 9 11 10 5 4 9 5 8 11 10 9 11
13 12 12 12 11 11 10 11 12 12 11 11 10 10 9 9 10 11 10 7 8 9 9 9 9 9 8 11 15 14 10 10 11 7 6 6 8 7 11 13 12 10 10
13 12 11 11 10 9 7 8 9 10 11 10 10 10 9 9 5 3 4 7 8 10 10 10 10 10 10 10 10 13 9 10 7 6 5 6 8 10 13 14 14 12 12
12 11 8 5 4 7 7 6 6 6 5 7 9 9 8 7 6 6 7 7 9 10 9 9 10 9 8 7 5 5 6 6 8 6 6 7 9 12 15 15 15 15 14
12 12 13 11 8 8 5 3 6 2 4 6 9 10 9 7 7 6 6 6 5 5 5 6 6 6 8 9 9 9 9 7 8 5 6 10 12 14 16 15 14 15 15
11 11 9 6 7 7 6 7 7 8 10 9 8 9 9 8 7 7 7 6 6 6 6 6 6 7 8 10 10 10 10 9 8 7 5 9 13 15 16 16 15 15 15
9 9 7 9 8 7 7 8 8 9 9 9 9 10 10 9 8 8 7 8 8 8 7 6 6 7 7 8 9 10 9 9 9 7 9 9 13 13 14 15 15 15 16
6 6 7 6 6 7 9 10 10 10 10 10 9 9 10 10 10 9 9 8 8 7 7 7 8 8 8 9 10 10 8 9 10 9 9 9 9 15 16 15 15 16 17
3 4 2 0 3 4 8 10 10 10 10 9 8 8 10 11 12 10 10 10 10 8 8 9 8 8 8 8 8 8 7 8 8 9 10 10 9 8 13 17 16 16 17
7 7 6 5 1 2 4 6 8 8 8 8 7 6 6 7 10 8 10 11 12 10 11 10 9 9 8 9 9 7 6 7 9 10 10 9 10 10 9 11 15 15 17
10 10 9 7 4 1 3 5 5 7 8 7 6 3 3 4 5 4 7 11 12 11 10 9 9 8 8 8 8 8 9 8 9 11 11 11 12 13 12 11 10 12 17
10 9 9 8 10 9 6 6 6 6 6 6 7 7 5 3 4 4 5 7 9 10 9 8 8 10 9 7 9 11 12 12 12 11 11 11 12 13 14 12 9 9 10
9 10 10 9 7 5 2 3 3 3 2 8 9 8 7 4 4 6 7 5 4 7 9 8 8 9 9 7 8 10 11 11 11 8 9 9 11 10 12 12 12 11 8
10 11 10 10 8 5 3 2 3 1 2 9 12 11 9 5 3 5 9 9 6 6 6 6 7 9 9 8 5 7 8 8 6 6 8 8 8 8 9 9 9 10 10
9 9 8 9 8 6 5 5 10 11 13 13 9 5 6 11 11 7 1 5 1 4 5 5 5 7 7 7 6 7 10 9 6 8 7 8 6 7 6 6 6 8 8
13 12 11 11 11 9 7 11 13 14 13 7 5 6 4 6 10 8 6 6 6 5 4 6 4 5 5 6 5 6 7 7 8 7 8 9 6 7 6 6 4 5 7
11 12 13 14 14 12 12 15 16 14 10 7 8 7 5 5 6 7 7 7 6 5 5 6 4 7 7 6 6 5 5 5 6 6 7 8 9 7 3 6 6 6 6
Wind_Direction
155 142 162 165 166 160 146 140 139 144 146 148 148 147 147 147 142 133 126 117 109 103 102 102 99 99 102 105 108 108 108 111 115 117 119 119 119 121 127 155 191 120 121
151 145 159 165 166 162 150 141 138 141 145 148 148 148 148 149 144 137 129 123 117 111 110 108 104 101 102 106 110 111 115 117 117 125 145 148 141 138 139 166 358 102 135
148 145 159 163 165 162 154 146 139 139 144 146 146 148 149 149 147 143 140 135 124 112 106 108 110 107 104 107 111 114 117 119 124 130 224 197 140 146 151 144 102 128 140
148 148 157 159 164 163 155 152 148 146 148 151 152 153 155 153 149 146 142 138 132 120 108 103 108 112 113 122 125 131 133 135 147 202 234 200 137 140 159 158 161 161 160
144 145 141 155 162 163 158 157 154 151 154 157 159 159 164 164 158 153 146 143 144 141 133 118 115 121 131 129 140 157 167 174 186 231 214 222 205 138 166 179 184 185 203
145 147 134 158 160 161 160 158 159 156 161 165 166 166 169 169 168 166 163 160 162 162 158 146 134 140 149 150 140 184 203 212 226 227 199 179 227 123 165 200 222 215 201
151 147 139 158 159 161 164 164 166 163 166 171 174 173 173 172 173 172 172 177 176 174 162 144 154 161 171 185 194 217 238 259 262 268 214 214 191 141 187 221 232 232 217
155 149 146 161 166 168 172 175 177 175 174 175 178 179 179 178 180 185 196 206 196 189 185 176 183 189 205 223 226 228 236 254 260 253 258 264 101 133 234 252 264 247 223
159 154 151 166 173 179 184 187 186 183 183 184 187 189 189 188 192 197 205 224 225 219 215 202 206 209 217 228 234 235 235 238 269 272 252 247 161 173 242 262 271 253 230
166 163 159 174 176 187 190 194 196 193 192 194 198 200 204 207 210 211 213 218 227 239 241 237 232 231 234 239 239 237 239 241 246 253 234 202 135 186 248 258 262 254 238
175 171 171 180 180 193 195 187 202 203 203 204 208 208 215 223 209 209 207 192 220 242 249 252 250 246 246 245 232 224 227 245 242 252 261 147 160 211 246 255 257 253 249
179 177 186 182 179 195 205 186 203 208 210 211 216 217 217 232 239 267 233 192 235 246 248 248 248 247 244 246 222 211 225 249 260 260 256 159 187 221 242 250 253 247 248
184 184 184 191 172 214 213 210 211 217 222 220 223 235 236 241 232 225 230 211 222 222 236 230 229 234 247 263 264 260 258 267 258 247 233 186 218 235 240 242 247 248 248
190 198 175 177 194 221 235 266 280 290 262 248 231 224 235 235 239 244 255 249 248 244 246 256 260 268 273 274 273 265 263 247 255 259 234 196 218 232 239 240 238 240 243
191 207 171 186 217 223 224 232 235 236 231 234 241 235 237 244 247 244 250 259 262 263 250 246 266 274 281 271 265 267 272 271 266 264 273 222 213 223 233 237 238 236 234
190 202 198 195 209 230 235 242 251 250 257 251 244 241 234 243 254 260 252 250 253 261 275 290 286 285 277 276 280 277 280 285 280 263 262 239 202 212 222 228 233 236 231
186 188 209 220 226 226 234 239 239 247 250 254 251 245 243 245 249 253 265 263 258 256 266 270 263 257 259 260 254 257 260 255 254 255 261 259 222 208 212 219 225 228 227
120 113 127 38 287 249 239 243 244 245 247 252 255 250 241 246 255 260 264 267 273 269 260 258 262 267 267 268 273 275 269 270 267 260 252 249 251 236 209 210 213 220 221
114 107 104 89 15 302 261 247 253 252 248 247 247 259 281 282 279 280 280 282 282 282 270 264 264 267 277 273 271 275 280 273 272 265 262 256 252 245 239 206 200 212 218
140 138 137 139 127 81 301 264 245 246 237 234 234 238 275 285 294 296 267 273 279 273 281 285 281 278 264 269 278 283 272 256 258 258 254 248 247 250 248 240 214 208 205
187 188 187 191 182 179 186 230 233 234 249 249 217 208 212 222 213 185 205 245 269 265 268 278 274 269 271 284 287 280 275 269 258 259 258 260 261 261 262 254 240 236 207
269 272 282 289 295 274 220 219 217 172 215 251 244 221 205 218 252 224 170 173 226 259 260 261 271 279 279 269 274 295 281 270 248 235 252 261 269 274 270 253 232 233 244
274 281 290 295 305 313 327 340 319 97 176 243 239 227 211 188 236 255 220 139 169 233 250 256 266 275 283 281 270 268 282 287 323 263 249 250 261 272 269 260 242 232 231
313 308 305 303 294 272 248 225 235 238 239 242 243 224 208 184 167 131 52 81 170 257 264 267 262 281 283 284 270 252 261 280 282 287 266 258 240 253 257 259 247 242 243
318 317 315 311 306 298 272 254 252 251 252 243 234 213 200 207 196 172 171 192 190 217 243 257 267 272 282 286 289 280 281 275 261 251 274 279 258 244 233 234 236 245 249
303 304 306 305 303 298 278 262 253 250 250 213 194 197 190 189 182 191 198 202 194 194 222 243 253 256 261 278 289 283 270 259 256 252 263 284 292 294 276 238 223 230 240